When you browse on this site, cookies collect data to enhance your experience and personalize the content and advertising you see.
Visit our Privacy Policy to learn more. By continuing to use the site, you agree to this use of cookies and data.
  • In Portugal
  • List of Countries
  • For 7 days
  • Water Temperature
  • Satellite Maps
  • Weather Map
  • Weather Widgets
  • user-avatar
    Login

    Hourly Weather Veliko Tarnovo

    Today, 18 April, Thursday

    Time Temperature Precipitation Wind Pressure Humidity
    00:00 +7°C° 0 mm 1 mps 742 mmHg 88%
    01:00 +7°C° 0 mm 1 mps 742 mmHg 90%
    02:00 +6°C° 0 mm 1 mps 742 mmHg 92%
    03:00 +6°C° 0 mm 1 mps 743 mmHg 92%
    04:00 +6°C° 0 mm 1 mps 743 mmHg 93%
    05:00 +5°C° 0 mm 1 mps 743 mmHg 94%
    06:00 +6°C° 0 mm 1 mps 743 mmHg 89%
    07:00 +8°C° 0 mm 1 mps 743 mmHg 84%
    08:00 +9°C° 0 mm 1 mps 743 mmHg 79%
    09:00 +9°C° 0 mm 2 mps 744 mmHg 76%
    10:00 +10°C° 0 mm 2 mps 744 mmHg 72%
    11:00 +12°C° 0 mm 2 mps 744 mmHg 68%
    12:00 +10°C° 0.2 mm 3 mps 744 mmHg 73%
    13:00 +10°C° 0.2 mm 3 mps 744 mmHg 77%
    14:00 +10°C° 0.2 mm 4 mps 744 mmHg 82%
    15:00 +9°C° 0.5 mm 3 mps 744 mmHg 84%
    16:00 +9°C° 0.5 mm 3 mps 744 mmHg 87%
    17:00 +8°C° 0.5 mm 2 mps 744 mmHg 89%
    18:00 +7°C° 0 mm 2 mps 745 mmHg 91%
    19:00 +7°C° 0 mm 2 mps 745 mmHg 93%
    20:00 +7°C° 0 mm 1 mps 745 mmHg 95%
    21:00 +7°C° 0 mm 1 mps 745 mmHg 95%
    22:00 +6°C° 0 mm 1 mps 746 mmHg 95%
    23:00 +6°C° 0 mm 1 mps 746 mmHg 95%

    Tomorrow, 19 April, Friday

    Time Temperature Precipitation Wind Pressure Humidity
    00:00 +6°C° 0 mm 1 mps 746 mmHg 95%
    01:00 +6°C° 0 mm 1 mps 746 mmHg 94%
    02:00 +6°C° 0 mm 2 mps 746 mmHg 93%
    03:00 +6°C° 0.1 mm 2 mps 746 mmHg 93%
    04:00 +5°C° 0.1 mm 2 mps 745 mmHg 93%
    05:00 +5°C° 0.1 mm 2 mps 745 mmHg 93%
    06:00 +6°C° 0.1 mm 2 mps 745 mmHg 91%
    07:00 +7°C° 0.1 mm 2 mps 745 mmHg 90%
    08:00 +7°C° 0.1 mm 2 mps 745 mmHg 88%
    09:00 +9°C° 0.1 mm 3 mps 744 mmHg 82%
    10:00 +10°C° 0.1 mm 3 mps 744 mmHg 76%
    11:00 +12°C° 0.1 mm 4 mps 744 mmHg 71%
    12:00 +12°C° 0.6 mm 4 mps 743 mmHg 68%
    13:00 +13°C° 0.6 mm 4 mps 743 mmHg 66%
    14:00 +13°C° 0.6 mm 4 mps 743 mmHg 63%
    15:00 +13°C° 1 mm 4 mps 742 mmHg 67%
    16:00 +12°C° 1 mm 3 mps 742 mmHg 72%
    17:00 +12°C° 1 mm 2 mps 742 mmHg 76%
    18:00 +10°C° 1.6 mm 2 mps 742 mmHg 82%
    19:00 +9°C° 1.6 mm 1 mps 743 mmHg 88%
    20:00 +8°C° 1.6 mm 1 mps 743 mmHg 94%
    21:00 +8°C° 0 mm 1 mps 744 mmHg 94%
    22:00 +6°C° 0 mm 2 mps 744 mmHg 93%
    23:00 +5°C° 0 mm 2 mps 745 mmHg 93%

    Day after tomorrow, 20 April, Saturday

    Time Temperature Precipitation Wind Pressure Humidity
    00:00 +5°C° 0 mm 2 mps 745 mmHg 93%
    01:00 +5°C° 0 mm 2 mps 745 mmHg 94%
    02:00 +5°C° 0 mm 2 mps 746 mmHg 94%
    03:00 +4°C° 0 mm 2 mps 746 mmHg 94%
    04:00 +4°C° 0 mm 1 mps 746 mmHg 95%
    05:00 +4°C° 0 mm 1 mps 746 mmHg 95%
    06:00 +5°C° 0 mm 1 mps 746 mmHg 90%
    07:00 +6°C° 0 mm 1 mps 746 mmHg 85%
    08:00 +6°C° 0 mm 2 mps 747 mmHg 80%
    09:00 +7°C° 0.3 mm 2 mps 747 mmHg 76%
    10:00 +8°C° 0.3 mm 3 mps 747 mmHg 72%
    11:00 +8°C° 0.3 mm 4 mps 747 mmHg 68%
    12:00 +10°C° 0.3 mm 4 mps 747 mmHg 64%
    13:00 +11°C° 0.3 mm 4 mps 746 mmHg 60%
    14:00 +11°C° 0.3 mm 4 mps 746 mmHg 56%
    15:00 +11°C° 0.1 mm 4 mps 746 mmHg 55%
    16:00 +11°C° 0.1 mm 4 mps 746 mmHg 55%
    17:00 +11°C° 0.1 mm 3 mps 746 mmHg 55%
    18:00 +9°C° 0 mm 2 mps 746 mmHg 60%
    19:00 +8°C° 0 mm 1 mps 746 mmHg 65%
    20:00 +7°C° 0 mm 1 mps 747 mmHg 70%
    21:00 +6°C° 0 mm 1 mps 747 mmHg 71%
    22:00 +6°C° 0 mm 1 mps 747 mmHg 71%
    23:00 +6°C° 0 mm 1 mps 747 mmHg 72%

    21 April, Sunday

    Time Temperature Precipitation Wind Pressure Humidity
    00:00 +5°C° 0 mm 1 mps 746 mmHg 71%
    01:00 +5°C° 0 mm 1 mps 746 mmHg 71%
    02:00 +5°C° 0 mm 1 mps 746 mmHg 71%
    03:00 +5°C° 0 mm 1 mps 746 mmHg 70%
    04:00 +5°C° 0 mm 1 mps 746 mmHg 70%
    05:00 +5°C° 0 mm 1 mps 745 mmHg 69%
    06:00 +7°C° 0 mm 1 mps 745 mmHg 65%
    07:00 +9°C° 0 mm 1 mps 745 mmHg 62%
    08:00 +11°C° 0 mm 1 mps 745 mmHg 58%
    09:00 +12°C° 0 mm 1 mps 745 mmHg 54%
    10:00 +14°C° 0 mm 1 mps 745 mmHg 51%
    11:00 +16°C° 0 mm 1 mps 745 mmHg 47%
    12:00 +16°C° 0 mm 1 mps 745 mmHg 46%
    13:00 +16°C° 0 mm 0 mps 744 mmHg 45%
    14:00 +16°C° 0 mm 0 mps 744 mmHg 44%
    15:00 +16°C° 0 mm 0 mps 743 mmHg 45%
    16:00 +15°C° 0 mm 0 mps 743 mmHg 45%
    17:00 +16°C° 0 mm 1 mps 743 mmHg 46%
    18:00 +14°C° 0 mm 1 mps 743 mmHg 52%
    19:00 +12°C° 0 mm 2 mps 743 mmHg 59%
    20:00 +9°C° 0 mm 2 mps 743 mmHg 65%
    21:00 +9°C° 0 mm 2 mps 743 mmHg 68%
    22:00 +8°C° 0 mm 3 mps 743 mmHg 71%
    23:00 +8°C° 0 mm 3 mps 744 mmHg 74%

    22 April, Monday

    Time Temperature Precipitation Wind Pressure Humidity
    00:00 +7°C° 0 mm 3 mps 743 mmHg 74%
    01:00 +7°C° 0 mm 3 mps 743 mmHg 75%
    02:00 +7°C° 0 mm 2 mps 743 mmHg 76%
    03:00 +7°C° 0 mm 2 mps 743 mmHg 76%
    04:00 +6°C° 0 mm 2 mps 743 mmHg 76%
    05:00 +6°C° 0 mm 2 mps 743 mmHg 76%
    06:00 +8°C° 0 mm 2 mps 743 mmHg 72%
    07:00 +10°C° 0 mm 2 mps 744 mmHg 68%
    08:00 +12°C° 0 mm 1 mps 744 mmHg 63%
    09:00 +14°C° 0 mm 2 mps 744 mmHg 58%
    10:00 +15°C° 0 mm 2 mps 744 mmHg 53%
    11:00 +17°C° 0 mm 3 mps 744 mmHg 48%
    12:00 +17°C° 0 mm 3 mps 744 mmHg 48%
    13:00 +18°C° 0 mm 3 mps 743 mmHg 48%
    14:00 +18°C° 0 mm 3 mps 743 mmHg 48%
    15:00 +18°C° 0 mm 4 mps 743 mmHg 51%
    16:00 +17°C° 0 mm 4 mps 743 mmHg 54%
    17:00 +17°C° 0 mm 4 mps 743 mmHg 58%
    18:00 +14°C° 0 mm 4 mps 743 mmHg 63%
    19:00 +12°C° 0 mm 4 mps 743 mmHg 68%
    20:00 +10°C° 0 mm 4 mps 744 mmHg 74%
    21:00 +8°C° 0 mm 4 mps 744 mmHg 72%
    22:00 +8°C° 0 mm 4 mps 744 mmHg 71%
    23:00 +7°C° 0 mm 4 mps 745 mmHg 69%

    23 April, Tuesday

    Time Temperature Precipitation Wind Pressure Humidity
    00:00 +6°C° 0 mm 4 mps 745 mmHg 69%
    01:00 +6°C° 0 mm 4 mps 745 mmHg 68%
    02:00 +6°C° 0 mm 4 mps 745 mmHg 68%
    03:00 +7°C° 0 mm 3 mps 745 mmHg 68%
    04:00 +5°C° 0 mm 3 mps 745 mmHg 68%
    05:00 +5°C° 0 mm 3 mps 745 mmHg 69%
    06:00 +6°C° 0 mm 4 mps 745 mmHg 67%
    07:00 +7°C° 0 mm 4 mps 745 mmHg 65%
    08:00 +8°C° 0 mm 4 mps 745 mmHg 63%
    09:00 +11°C° 0 mm 4 mps 745 mmHg 59%
    10:00 +12°C° 0 mm 5 mps 745 mmHg 55%
    11:00 +14°C° 0 mm 5 mps 745 mmHg 51%
    12:00 +15°C° 0 mm 5 mps 745 mmHg 51%
    13:00 +15°C° 0 mm 6 mps 744 mmHg 51%
    14:00 +16°C° 0 mm 6 mps 744 mmHg 50%
    15:00 +16°C° 0 mm 6 mps 743 mmHg 53%
    16:00 +15°C° 0 mm 6 mps 743 mmHg 56%
    17:00 +15°C° 0 mm 6 mps 743 mmHg 58%
    18:00 +13°C° 0 mm 5 mps 743 mmHg 62%
    19:00 +10°C° 0 mm 5 mps 743 mmHg 65%
    20:00 +10°C° 0 mm 4 mps 743 mmHg 68%
    21:00 +8°C° 0 mm 4 mps 743 mmHg 69%
    22:00 +7°C° 0 mm 4 mps 743 mmHg 69%
    23:00 +8°C° 0 mm 3 mps 743 mmHg 70%
    Show more